Regional Weather Roundup
Issued by NWS

Home | Current Version | Previous Version | Graphics & Text | Print | Product List | Glossary On
Versions: 1 2 3 4 5 6 7 8 9 10 11 12 13 14 15 16 17 18 19 20 21 22 23 24 25 26 27 28 29 30 31 32 33 34 35 36 37 38 39 40 41 42 43 44 45 46 47 48 49 50
000
ASUS45 KSLC 250010
RWRUT

UTAH REGIONAL WEATHER ROUNDUP
NATIONAL WEATHER SERVICE SALT LAKE CITY UT
500 PM MST SAT JAN 24 2015

UTZ001>011-023>025-250100-

NORTHERN UTAH

CITY           SKY/WX    TMP DP  RH WIND       PRES   REMARKS
BRIGHAM CITY   CLOUDY    35  24  65 N5        30.47R WCI  31
HILL AFB       CLOUDY    37  17  45 N2        30.44R
LOGAN          CLOUDY    32  24  72 CALM      30.46R
OGDEN          CLOUDY    36  26  67 NW6       30.44S WCI  31
PROVO AIRPORT  NOT AVBL
SALT LAKE CITY CLOUDY    38  25  59 CALM      30.44F
VERNAL         MOCLDY    36  17  46 VRB5      30.33R WCI  32
WENDOVER       CLEAR     39  27  60 E3        30.44S
HEBER CITY     CLOUDY    34  23  64 N3        30.41F
WEST JORDAN    CLOUDY    39  25  56 CALM      30.44F

$$

UTZ012>022-026-027-250100-

SOUTHERN/CENTRAL UTAH

CITY           SKY/WX    TMP DP  RH WIND       PRES   REMARKS
BLANDING       CLEAR     45  17  31 CALM      30.35S
BRYCE CANYON   CLEAR     43  17  35 N7        30.34R
CEDAR CITY     CLEAR     47  20  34 N9        30.34S
DELTA          CLOUDY    42  23  46 CALM      30.43S
MILFORD        CLEAR     44  23  43 N16       30.40R
MOAB/CYNLANDS  CLEAR     42  18  37 E6        30.32R
PRICE          PTCLDY    42  17  36 SE8       30.31R
ST GEORGE      PTCLDY    59  21  23 S3        30.26F
KANAB          CLEAR     54  19  26 E5        30.29S

$$

REGIONAL REPORTS     COLORADO/ARIZONA

CITY           SKY/WX    TMP DP  RH WIND       PRES   REMARKS
CRAIG, CO      CLOUDY    28  18  66 SW3       30.31R
GRAND JUNCTION CLOUDY    38  14  37 CALM      30.33S
RIFLE          CLOUDY    34  14  43 S6        30.33F WCI  29
MONTROSE       MOCLDY    38  10  31 CALM      30.35R
CORTEZ         CLEAR     41  16  36 W6        30.27R
PAGE, AZ       NOT AVBL
GRAND CANYON   CLEAR     48  13  24 N6        30.27F
KINGMAN        CLEAR     60  16  18 N13       30.18F
FLAGSTAFF      CLEAR     44  11  26 E8        30.27S

$$

REGIONAL REPORTS    NEVADA/IDAHO/WYOMING

CITY           SKY/WX    TMP DP  RH WIND       PRES   REMARKS
LAS VEGAS, NV  CLEAR     67  19  16 E7        30.17F
ELY            CLEAR     50  24  36 N12       30.39S
ELKO           CLEAR     50  29  44 SW7       30.41S
POCATELLO, ID  CLOUDY    32  30  92 NE5       30.43F WCI  27
BURLEY         CLOUDY    40  32  73 NW5       30.40S
EVANSTON, WY   CLOUDY    34  25  69 SW13      30.40R WCI  25
ROCK SPRINGS   MOCLDY    35  25  66 W31G39    30.26F WCI  22
KEMMERER       CLOUDY    30  28  93 W24       30.34F WCI  16

$$


USA.gov is the U.S. government's official web portal to all federal, state and local government web resources and services.